User: anonymous   Login
Location: Unspecified
(0.0000°N, 0.0000°E)
Time: 03:37:17
(UTC+00:00)
Language:

USA 93 - Orbit

View from above orbital plane
View from above orbital plane
View from above satellite
View from above satellite

Ground track
Ground track

The orbit data is extracted from the following two-line orbital elements,

1 22719U 93046A   17073.82447267 0.00000000  00000-0  00000-0 0    04
2 22719  10.7608  39.0122 0002137 224.9195 135.0752  0.99044258    01
Epoch (UTC): 14 March 2017 19:47:14
Eccentricity: 0.0002137
inclination: 10.7608°
perigee height: 36125 km
apogee height: 36143 km
right ascension of ascending node: 39.0122°
argument of perigee: 224.9195°
revolutions per day: 0.99044258
mean anomaly at epoch: 135.0752°
orbit number at epoch: 0

The dashed part of the orbit path shows where the satellite is in the earth's shadow,  

DLR